Location: Marse
(42.1502°N, 110.9866°W)
Time: 01:07:53
(UTC+00:00)

BEESAT - Pass Details

Date: 28 June 2022
Orbit: 700 x 706 km, 98.6° (Epoch: 16 August)

Event Time Altitude Azimuth Distance (km) Brightness Sun altitude
Rises 04:53:12 0° 0° (N) 3,102 ? -15.5°
Reaches altitude 10° 04:55:49 10° 347° (NNW) 2,181 ? -15.8°
Maximum altitude 04:59:34 24° 295° (WNW) 1,460 ? -16.2°
Drops below altitude 10° 05:03:19 10° 243° (WSW) 2,172 ? -16.6°
Sets 05:05:56 0° 229° (SW) 3,087 ? -16.9°
